Time,TemperatureF,DewpointF,PressureIn,WindDirection,WindDirectionDegrees,WindSpeedMPH,WindSpeedGustMPH,Humidity,HourlyPrecipIn,Conditions,Clouds,dailyrainin,SoftwareType,DateUTC
2013-01-19 00:00:00,36.6,30.7,30.00,SW,232,20.0,21.0,79,0.00,,,0.00,Wunderground v.1.15,2013-01-19 06:00:00,
2013-01-19 00:06:00,36.4,30.5,30.00,SW,232,20.0,21.0,79,0.00,,,0.00,Wunderground v.1.15,2013-01-19 06:06:00,
2013-01-19 00:11:00,36.4,30.5,30.00,SW,218,19.0,21.0,79,0.00,,,0.00,Wunderground v.1.15,2013-01-19 06:11:00,
2013-01-19 00:17:00,36.4,30.5,30.00,SW,223,19.0,22.0,79,0.00,,,0.00,Wunderground v.1.15,2013-01-19 06:17:00,
2013-01-19 00:22:00,36.3,30.7,30.00,SW,220,19.0,21.0,80,0.00,,,0.00,Wunderground v.1.15,2013-01-19 06:22:00,
2013-01-19 00:28:00,36.4,30.5,30.00,SW,223,19.0,23.0,79,0.00,,,0.00,Wunderground v.1.15,2013-01-19 06:28:00,
2013-01-19 00:33:00,36.4,30.5,29.99,SW,226,19.0,20.0,79,0.00,,,0.00,Wunderground v.1.15,2013-01-19 06:33:00,
2013-01-19 00:39:00,36.4,30.8,30.00,SW,232,19.0,21.0,80,0.00,,,0.00,Wunderground v.1.15,2013-01-19 06:39:00,
2013-01-19 00:44:00,36.4,30.5,30.00,WSW,239,19.0,22.0,79,0.00,,,0.00,Wunderground v.1.15,2013-01-19 06:44:00,
2013-01-19 00:50:00,36.4,30.5,30.00,SW,230,19.0,19.0,79,0.00,,,0.00,Wunderground v.1.15,2013-01-19 06:50:00,
2013-01-19 00:56:00,36.3,30.7,30.00,SW,227,19.0,20.0,80,0.00,,,0.00,Wunderground v.1.15,2013-01-19 06:56:00,
2013-01-19 01:02:00,36.2,30.6,30.00,SW,229,19.0,21.0,80,0.00,,,0.00,Wunderground v.1.15,2013-01-19 07:02:00,
2013-01-19 01:08:00,36.3,30.7,30.00,SW,232,19.0,22.0,80,0.00,,,0.00,Wunderground v.1.15,2013-01-19 07:08:00,
2013-01-19 01:14:00,36.3,30.7,30.00,SW,220,20.0,21.0,80,0.00,,,0.00,Wunderground v.1.15,2013-01-19 07:14:00,
2013-01-19 01:20:00,36.1,30.5,30.00,SW,232,19.0,19.0,80,0.00,,,0.00,Wunderground v.1.15,2013-01-19 07:20:00,
2013-01-19 01:26:00,36.1,30.5,30.00,SW,227,19.0,19.0,80,0.00,,,0.00,Wunderground v.1.15,2013-01-19 07:26:00,
2013-01-19 01:31:00,36.1,30.5,30.00,WSW,244,19.0,20.0,80,0.00,,,0.00,Wunderground v.1.15,2013-01-19 07:31:00,
2013-01-19 01:36:00,36.1,30.5,30.00,WSW,237,19.0,23.0,80,0.00,,,0.00,Wunderground v.1.15,2013-01-19 07:36:00,
2013-01-19 01:42:00,36.1,30.5,30.00,SW,232,19.0,19.0,80,0.00,,,0.00,Wunderground v.1.15,2013-01-19 07:42:00,
2013-01-19 01:48:00,36.2,30.6,30.00,WSW,237,20.0,23.0,80,0.00,,,0.00,Wunderground v.1.15,2013-01-19 07:48:00,
2013-01-19 01:53:00,36.0,30.4,30.00,WSW,242,20.0,20.0,80,0.00,,,0.00,Wunderground v.1.15,2013-01-19 07:53:00,
2013-01-19 01:58:00,36.0,30.4,30.00,WSW,242,19.0,21.0,80,0.00,,,0.00,Wunderground v.1.15,2013-01-19 07:58:00,
2013-01-19 02:04:00,36.1,30.5,30.00,SW,233,19.0,22.0,80,0.00,,,0.00,Wunderground v.1.15,2013-01-19 08:04:00,
2013-01-19 02:09:00,36.1,30.5,30.00,SW,233,19.0,22.0,80,0.00,,,0.00,Wunderground v.1.15,2013-01-19 08:09:00,
2013-01-19 02:14:00,36.0,30.4,30.00,WSW,248,19.0,20.0,80,0.00,,,0.00,Wunderground v.1.15,2013-01-19 08:14:00,
2013-01-19 02:20:00,36.2,30.6,30.00,SW,232,19.0,21.0,80,0.00,,,0.00,Wunderground v.1.15,2013-01-19 08:20:00,
2013-01-19 02:26:00,36.1,30.5,30.00,SW,232,19.0,23.0,80,0.00,,,0.00,Wunderground v.1.15,2013-01-19 08:26:00,
2013-01-19 02:31:00,36.1,30.5,30.00,WSW,239,19.0,19.0,80,0.00,,,0.00,Wunderground v.1.15,2013-01-19 08:31:00,
2013-01-19 02:36:00,35.9,30.3,30.00,WSW,239,18.0,19.0,80,0.00,,,0.00,Wunderground v.1.15,2013-01-19 08:36:00,
2013-01-19 02:42:00,35.7,30.4,30.00,WSW,239,17.0,18.0,81,0.00,,,0.00,Wunderground v.1.15,2013-01-19 08:42:00,
2013-01-19 02:48:00,35.8,30.5,30.00,SW,235,17.0,18.0,81,0.00,,,0.00,Wunderground v.1.15,2013-01-19 08:48:00,
2013-01-19 02:53:00,35.7,30.4,30.00,WSW,239,17.0,17.0,81,0.00,,,0.00,Wunderground v.1.15,2013-01-19 08:53:00,
2013-01-19 02:58:00,35.6,30.3,30.00,SW,228,17.0,18.0,81,0.00,,,0.00,Wunderground v.1.15,2013-01-19 08:58:00,
2013-01-19 03:04:00,35.5,30.2,30.00,SW,223,16.0,18.0,81,0.00,,,0.00,Wunderground v.1.15,2013-01-19 09:04:00,
2013-01-19 03:09:00,35.5,30.2,30.00,SW,233,17.0,19.0,81,0.00,,,0.00,Wunderground v.1.15,2013-01-19 09:09:00,
2013-01-19 03:14:00,35.4,30.1,30.00,SW,232,16.0,18.0,81,0.00,,,0.00,Wunderground v.1.15,2013-01-19 09:14:00,
2013-01-19 03:19:00,35.4,30.5,29.99,SW,223,16.0,20.0,82,0.00,,,0.00,Wunderground v.1.15,2013-01-19 09:19:00,
2013-01-19 03:24:00,35.3,30.4,29.99,SW,230,16.0,18.0,82,0.00,,,0.00,Wunderground v.1.15,2013-01-19 09:24:00,
2013-01-19 03:29:00,35.2,30.3,29.99,WSW,237,16.0,18.0,82,0.00,,,0.00,Wunderground v.1.15,2013-01-19 09:29:00,
2013-01-19 03:34:00,35.3,30.4,29.99,SW,220,16.0,17.0,82,0.00,,,0.00,Wunderground v.1.15,2013-01-19 09:34:00,
2013-01-19 03:39:00,35.4,30.5,29.99,SW,224,17.0,17.0,82,0.00,,,0.00,Wunderground v.1.15,2013-01-19 09:39:00,
2013-01-19 03:45:00,35.3,30.4,29.99,SW,233,17.0,19.0,82,0.00,,,0.00,Wunderground v.1.15,2013-01-19 09:45:00,
2013-01-19 03:50:00,35.2,30.3,29.98,WSW,243,17.0,20.0,82,0.00,,,0.00,Wunderground v.1.15,2013-01-19 09:50:00,
2013-01-19 03:55:00,35.1,30.2,29.98,SW,232,17.0,20.0,82,0.00,,,0.00,Wunderground v.1.15,2013-01-19 09:55:00,
2013-01-19 04:00:00,35.1,30.2,29.98,WSW,239,17.0,19.0,82,0.00,,,0.00,Wunderground v.1.15,2013-01-19 10:00:00,
2013-01-19 04:06:00,35.2,30.3,29.98,SW,227,18.0,19.0,82,0.00,,,0.00,Wunderground v.1.15,2013-01-19 10:06:00,
2013-01-19 04:11:00,35.1,30.2,29.98,SW,227,17.0,17.0,82,0.00,,,0.00,Wunderground v.1.15,2013-01-19 10:11:00,
2013-01-19 04:16:00,35.1,30.5,29.98,WSW,237,17.0,19.0,83,0.00,,,0.00,Wunderground v.1.15,2013-01-19 10:16:00,
2013-01-19 04:21:00,35.1,30.5,29.98,WSW,242,17.0,17.0,83,0.00,,,0.00,Wunderground v.1.15,2013-01-19 10:21:00,
2013-01-19 04:26:00,35.1,30.2,29.97,SW,223,17.0,19.0,82,0.00,,,0.00,Wunderground v.1.15,2013-01-19 10:26:00,
2013-01-19 04:31:00,35.2,30.3,29.97,SW,222,17.0,17.0,82,0.00,,,0.00,Wunderground v.1.15,2013-01-19 10:31:00,
2013-01-19 04:36:00,35.3,30.4,29.97,SW,232,17.0,18.0,82,0.00,,,0.00,Wunderground v.1.15,2013-01-19 10:36:00,
2013-01-19 04:42:00,35.3,30.4,29.97,SW,235,17.0,17.0,82,0.00,,,0.00,Wunderground v.1.15,2013-01-19 10:42:00,
2013-01-19 04:48:00,35.3,30.4,29.97,SW,232,17.0,19.0,82,0.00,,,0.00,Wunderground v.1.15,2013-01-19 10:48:00,
2013-01-19 04:54:00,35.3,30.4,29.97,SW,222,17.0,18.0,82,0.00,,,0.00,Wunderground v.1.15,2013-01-19 10:54:00,
2013-01-19 05:00:00,35.3,30.4,29.97,WSW,239,17.0,17.0,82,0.00,,,0.00,Wunderground v.1.15,2013-01-19 11:00:00,
2013-01-19 05:06:00,35.2,30.3,29.97,SW,235,16.0,19.0,82,0.00,,,0.00,Wunderground v.1.15,2013-01-19 11:06:00,
2013-01-19 05:11:00,35.2,30.3,29.97,SW,223,16.0,16.0,82,0.00,,,0.00,Wunderground v.1.15,2013-01-19 11:11:00,
2013-01-19 06:47:00,35.0,30.4,29.94,SW,230,15.0,17.0,83,0.00,,,0.00,Wunderground v.1.15,2013-01-19 12:47:00,
2013-01-19 06:48:00,35.0,30.4,29.95,WSW,240,15.0,17.0,83,0.00,,,0.00,Wunderground v.1.15,2013-01-19 12:48:00,
2013-01-19 06:49:00,35.1,30.5,29.94,SW,227,15.0,17.0,83,0.00,,,0.00,Wunderground v.1.15,2013-01-19 12:49:00,
2013-01-19 06:54:00,35.0,30.4,29.94,SW,226,15.0,18.0,83,0.00,,,0.00,Wunderground v.1.15,2013-01-19 12:54:00,
2013-01-19 06:55:00,35.0,30.4,29.94,SW,224,15.0,18.0,83,0.00,,,0.00,Wunderground v.1.15,2013-01-19 12:55:00,
2013-01-19 06:56:00,35.0,30.4,29.94,SW,226,15.0,18.0,83,0.00,,,0.00,Wunderground v.1.15,2013-01-19 12:56:00,
2013-01-19 07:01:00,35.2,30.3,29.94,SW,230,15.0,15.0,82,0.00,,,0.00,Wunderground v.1.15,2013-01-19 13:01:00,
2013-01-19 07:06:00,35.2,30.3,29.94,SW,216,15.0,15.0,82,0.00,,,0.00,Wunderground v.1.15,2013-01-19 13:06:00,
2013-01-19 07:12:00,35.3,30.4,29.94,SW,233,15.0,15.0,82,0.00,,,0.00,Wunderground v.1.15,2013-01-19 13:12:00,
2013-01-19 07:17:00,35.3,30.4,29.94,SW,226,15.0,15.0,82,0.00,,,0.00,Wunderground v.1.15,2013-01-19 13:17:00,
2013-01-19 07:23:00,35.3,30.4,29.93,SW,224,15.0,15.0,82,0.00,,,0.00,Wunderground v.1.15,2013-01-19 13:23:00,
2013-01-19 07:29:00,35.4,30.5,29.93,SW,226,15.0,17.0,82,0.00,,,0.00,Wunderground v.1.15,2013-01-19 13:29:00,
2013-01-19 07:34:00,35.5,30.5,29.93,SW,228,14.0,16.0,82,0.00,,,0.00,Wunderground v.1.15,2013-01-19 13:34:00,
2013-01-19 07:39:00,35.6,30.6,29.93,SW,231,15.0,17.0,82,0.00,,,0.00,Wunderground v.1.15,2013-01-19 13:39:00,
2013-01-19 07:44:00,35.7,30.7,29.93,SW,223,15.0,17.0,82,0.00,,,0.00,Wunderground v.1.15,2013-01-19 13:44:00,
2013-01-19 07:49:00,35.9,30.9,29.93,SW,227,15.0,17.0,82,0.00,,,0.00,Wunderground v.1.15,2013-01-19 13:49:00,
2013-01-19 07:54:00,36.3,31.0,29.93,SW,229,15.0,17.0,81,0.00,,,0.00,Wunderground v.1.15,2013-01-19 13:54:00,
2013-01-19 07:59:00,36.7,31.1,29.93,SW,227,16.0,19.0,80,0.00,,,0.00,Wunderground v.1.15,2013-01-19 13:59:00,
2013-01-19 08:05:00,37.2,31.6,29.92,SW,229,17.0,20.0,80,0.00,,,0.00,Wunderground v.1.15,2013-01-19 14:05:00,
2013-01-19 08:10:00,37.5,31.6,29.92,SW,227,17.0,17.0,79,0.00,,,0.00,Wunderground v.1.15,2013-01-19 14:10:00,
2013-01-19 08:15:00,37.8,31.9,29.92,SW,227,18.0,21.0,79,0.00,,,0.00,Wunderground v.1.15,2013-01-19 14:15:00,
2013-01-19 08:20:00,38.1,31.8,29.92,SW,229,19.0,22.0,78,0.00,,,0.00,Wunderground v.1.15,2013-01-19 14:20:00,
2013-01-19 08:26:00,38.4,31.8,29.92,WSW,237,19.0,22.0,77,0.00,,,0.00,Wunderground v.1.15,2013-01-19 14:26:00,
2013-01-19 08:31:00,38.6,32.3,29.92,WSW,239,19.0,20.0,78,0.00,,,0.00,Wunderground v.1.15,2013-01-19 14:31:00,
2013-01-19 08:37:00,38.7,32.1,29.92,SSW,209,19.0,20.0,77,0.00,,,0.00,Wunderground v.1.15,2013-01-19 14:37:00,
2013-01-19 08:42:00,38.9,32.0,29.92,SW,220,20.0,25.0,76,0.00,,,0.00,Wunderground v.1.15,2013-01-19 14:42:00,
2013-01-19 08:48:00,39.2,32.3,29.92,SW,236,22.0,25.0,76,0.00,,,0.00,Wunderground v.1.15,2013-01-19 14:48:00,
2013-01-19 08:54:00,39.2,32.3,29.92,SW,223,21.0,23.0,76,0.00,,,0.00,Wunderground v.1.15,2013-01-19 14:54:00,
2013-01-19 08:59:00,39.3,32.4,29.92,SW,227,21.0,25.0,76,0.00,,,0.00,Wunderground v.1.15,2013-01-19 14:59:00,
2013-01-19 09:04:00,39.7,32.4,29.92,SSW,212,22.0,28.0,75,0.00,,,0.00,Wunderground v.1.15,2013-01-19 15:04:00,
2013-01-19 09:09:00,40.1,32.8,29.92,SW,228,22.0,28.0,75,0.00,,,0.00,Wunderground v.1.15,2013-01-19 15:09:00,
2013-01-19 09:14:00,40.7,33.4,29.92,WSW,247,21.0,24.0,75,0.00,,,0.00,Wunderground v.1.15,2013-01-19 15:14:00,
2013-01-19 09:19:00,41.1,33.1,29.91,SW,232,22.0,27.0,73,0.00,,,0.00,Wunderground v.1.15,2013-01-19 15:19:00,
2013-01-19 09:24:00,41.3,33.0,29.92,SW,226,24.0,30.0,72,0.00,,,0.00,Wunderground v.1.15,2013-01-19 15:24:00,
2013-01-19 09:30:00,41.1,33.4,29.92,SW,233,23.0,23.0,74,0.00,,,0.00,Wunderground v.1.15,2013-01-19 15:30:00,
2013-01-19 09:35:00,41.0,33.0,29.91,WSW,239,22.0,25.0,73,0.00,,,0.00,Wunderground v.1.15,2013-01-19 15:35:00,
2013-01-19 09:40:00,41.2,33.5,29.91,SW,236,22.0,27.0,74,0.00,,,0.00,Wunderground v.1.15,2013-01-19 15:40:00,
2013-01-19 09:45:00,41.8,33.4,29.91,WSW,241,23.0,27.0,72,0.00,,,0.00,Wunderground v.1.15,2013-01-19 15:45:00,
2013-01-19 09:50:00,41.9,33.9,29.92,SW,235,24.0,24.0,73,0.00,,,0.00,Wunderground v.1.15,2013-01-19 15:50:00,
2013-01-19 09:55:00,42.2,33.8,29.91,WSW,240,25.0,33.0,72,0.00,,,0.00,Wunderground v.1.15,2013-01-19 15:55:00,
2013-01-19 10:00:00,42.7,33.9,29.91,WSW,237,25.0,34.0,71,0.00,,,0.00,Wunderground v.1.15,2013-01-19 16:00:00,
2013-01-19 10:06:00,42.7,33.9,29.91,WSW,237,26.0,34.0,71,0.00,,,0.00,Wunderground v.1.15,2013-01-19 16:06:00,
2013-01-19 10:11:00,42.3,33.9,29.91,SW,232,25.0,26.0,72,0.00,,,0.00,Wunderground v.1.15,2013-01-19 16:11:00,
2013-01-19 10:16:00,41.9,33.5,29.90,SW,227,25.0,30.0,72,0.00,,,0.00,Wunderground v.1.15,2013-01-19 16:16:00,
2013-01-19 10:21:00,42.3,34.6,29.90,WSW,241,25.0,25.0,74,0.00,,,0.00,Wunderground v.1.15,2013-01-19 16:21:00,
2013-01-19 10:26:00,43.5,35.8,29.90,SW,236,26.0,31.0,74,0.00,,,0.00,Wunderground v.1.15,2013-01-19 16:26:00,
2013-01-19 10:31:00,43.9,35.5,29.89,SW,235,28.0,31.0,72,0.00,,,0.00,Wunderground v.1.15,2013-01-19 16:31:00,
2013-01-19 10:36:00,43.6,35.2,29.88,WSW,248,29.0,31.0,72,0.00,,,0.00,Wunderground v.1.15,2013-01-19 16:36:00,
2013-01-19 10:42:00,43.4,35.0,29.88,WSW,241,28.0,31.0,72,0.00,,,0.00,Wunderground v.1.15,2013-01-19 16:42:00,
2013-01-19 10:47:00,43.3,35.2,29.88,WSW,251,28.0,33.0,73,0.00,,,0.00,Wunderground v.1.15,2013-01-19 16:47:00,
2013-01-19 10:52:00,43.9,35.1,29.88,SW,229,28.0,31.0,71,0.00,,,0.00,Wunderground v.1.15,2013-01-19 16:52:00,
2013-01-19 10:58:00,44.7,35.9,29.87,SW,226,29.0,33.0,71,0.00,,,0.00,Wunderground v.1.15,2013-01-19 16:58:00,
2013-01-19 11:03:00,45.0,36.5,29.86,SW,232,29.0,30.0,72,0.00,,,0.00,Wunderground v.1.15,2013-01-19 17:03:00,
2013-01-19 11:08:00,45.4,36.5,29.86,WSW,250,29.0,32.0,71,0.00,,,0.00,Wunderground v.1.15,2013-01-19 17:08:00,
2013-01-19 11:14:00,45.6,36.4,29.86,WSW,248,29.0,33.0,70,0.00,,,0.00,Wunderground v.1.15,2013-01-19 17:14:00,
2013-01-19 11:19:00,45.9,37.0,29.86,SW,221,28.0,33.0,71,0.00,,,0.00,Wunderground v.1.15,2013-01-19 17:19:00,
2013-01-19 11:25:00,46.3,37.4,29.85,WSW,237,28.0,32.0,71,0.00,,,0.00,Wunderground v.1.15,2013-01-19 17:25:00,
2013-01-19 11:30:00,46.6,37.0,29.84,SW,230,29.0,29.0,69,0.00,,,0.00,Wunderground v.1.15,2013-01-19 17:30:00,
2013-01-19 11:37:00,46.8,37.2,29.83,WSW,237,30.0,35.0,69,0.00,,,0.00,Wunderground v.1.15,2013-01-19 17:37:00,
2013-01-19 11:43:00,46.7,37.4,29.83,WSW,250,30.0,32.0,70,0.00,,,0.00,Wunderground v.1.15,2013-01-19 17:43:00,
2013-01-19 11:49:00,47.1,37.4,29.83,WSW,239,29.0,34.0,69,0.00,,,0.00,Wunderground v.1.15,2013-01-19 17:49:00,
2013-01-19 11:54:00,47.4,38.1,29.82,WSW,243,29.0,33.0,70,0.00,,,0.00,Wunderground v.1.15,2013-01-19 17:54:00,
2013-01-19 12:00:00,47.6,37.6,29.82,WSW,242,29.0,29.0,68,0.00,,,0.00,Wunderground v.1.15,2013-01-19 18:00:00,
2013-01-19 12:06:00,47.9,39.3,29.82,WSW,249,29.0,31.0,72,0.00,,,0.00,Wunderground v.1.15,2013-01-19 18:06:00,
2013-01-19 12:11:00,48.3,38.6,29.82,WSW,248,27.0,30.0,69,0.00,,,0.00,Wunderground v.1.15,2013-01-19 18:11:00,
2013-01-19 12:16:00,48.3,38.2,29.81,WSW,240,27.0,36.0,68,0.00,,,0.00,Wunderground v.1.15,2013-01-19 18:16:00,
2013-01-19 12:22:00,48.3,38.2,29.81,WSW,256,28.0,34.0,68,0.00,,,0.00,Wunderground v.1.15,2013-01-19 18:22:00,
2013-01-19 12:29:00,48.2,38.5,29.81,WSW,241,29.0,34.0,69,0.00,,,0.00,Wunderground v.1.15,2013-01-19 18:29:00,
2013-01-19 12:35:00,48.2,38.5,29.81,WSW,237,27.0,29.0,69,0.00,,,0.00,Wunderground v.1.15,2013-01-19 18:35:00,
2013-01-19 12:40:00,48.3,39.0,29.81,WSW,237,25.0,25.0,70,0.00,,,0.00,Wunderground v.1.15,2013-01-19 18:40:00,
2013-01-19 12:45:00,48.4,38.7,29.82,WSW,246,26.0,29.0,69,0.00,,,0.00,Wunderground v.1.15,2013-01-19 18:45:00,
2013-01-19 12:51:00,48.5,38.8,29.81,WSW,244,25.0,26.0,69,0.00,,,0.00,Wunderground v.1.15,2013-01-19 18:51:00,
2013-01-19 12:56:00,48.3,38.6,29.81,WSW,237,25.0,28.0,69,0.00,,,0.00,Wunderground v.1.15,2013-01-19 18:56:00,
2013-01-19 13:02:00,48.2,39.6,29.81,WSW,242,26.0,26.0,72,0.00,,,0.00,Wunderground v.1.15,2013-01-19 19:02:00,
2013-01-19 13:08:00,48.0,39.4,29.80,SW,227,24.0,27.0,72,0.00,,,0.00,Wunderground v.1.15,2013-01-19 19:08:00,
2013-01-19 13:13:00,47.9,39.3,29.80,WSW,242,23.0,23.0,72,0.00,,,0.00,Wunderground v.1.15,2013-01-19 19:13:00,
2013-01-19 13:19:00,47.9,39.7,29.79,SW,229,21.0,26.0,73,0.00,,,0.00,Wunderground v.1.15,2013-01-19 19:19:00,
2013-01-19 13:24:00,47.9,39.7,29.79,WSW,239,22.0,22.0,73,0.00,,,0.00,Wunderground v.1.15,2013-01-19 19:24:00,
2013-01-19 13:30:00,48.4,40.1,29.79,WSW,243,22.0,22.0,73,0.00,,,0.00,Wunderground v.1.15,2013-01-19 19:30:00,
2013-01-19 13:36:00,49.2,40.6,29.79,WSW,244,21.0,23.0,72,0.00,,,0.00,Wunderground v.1.15,2013-01-19 19:36:00,
2013-01-19 13:42:00,49.3,40.7,29.80,WSW,252,20.0,21.0,72,0.00,,,0.00,Wunderground v.1.15,2013-01-19 19:42:00,
2013-01-19 13:48:00,49.5,40.1,29.81,WSW,239,21.0,26.0,70,0.00,,,0.00,Wunderground v.1.15,2013-01-19 19:48:00,
2013-01-19 13:53:00,49.3,39.9,29.80,WSW,241,22.0,24.0,70,0.00,,,0.00,Wunderground v.1.15,2013-01-19 19:53:00,
2013-01-19 13:59:00,49.2,39.8,29.80,WSW,243,22.0,25.0,70,0.00,,,0.00,Wunderground v.1.15,2013-01-19 19:59:00,
2013-01-19 14:05:00,49.1,39.7,29.80,WSW,248,22.0,24.0,70,0.00,,,0.00,Wunderground v.1.15,2013-01-19 20:05:00,
2013-01-19 14:11:00,49.0,39.3,29.79,WSW,250,22.0,26.0,69,0.00,,,0.00,Wunderground v.1.15,2013-01-19 20:11:00,
2013-01-19 14:17:00,48.9,39.9,29.79,WSW,237,23.0,26.0,71,0.00,,,0.00,Wunderground v.1.15,2013-01-19 20:17:00,
2013-01-19 14:22:00,49.1,40.5,29.78,WSW,237,23.0,25.0,72,0.00,,,0.00,Wunderground v.1.15,2013-01-19 20:22:00,
2013-01-19 14:28:00,49.8,40.4,29.78,WSW,247,23.0,26.0,70,0.00,,,0.00,Wunderground v.1.15,2013-01-19 20:28:00,
2013-01-19 14:35:00,50.3,40.5,29.77,WSW,243,24.0,26.0,69,0.00,,,0.00,Wunderground v.1.15,2013-01-19 20:35:00,
2013-01-19 14:40:00,50.5,40.3,29.77,WSW,243,25.0,26.0,68,0.00,,,0.00,Wunderground v.1.15,2013-01-19 20:40:00,
2013-01-19 14:47:00,50.6,40.4,29.78,WSW,239,25.0,28.0,68,0.00,,,0.00,Wunderground v.1.15,2013-01-19 20:47:00,
2013-01-19 14:52:00,50.6,40.0,29.77,WSW,253,25.0,28.0,67,0.00,,,0.00,Wunderground v.1.15,2013-01-19 20:52:00,
2013-01-19 14:58:00,50.6,39.7,29.78,WSW,243,26.0,31.0,66,0.00,,,0.00,Wunderground v.1.15,2013-01-19 20:58:00,
2013-01-19 15:04:00,50.6,40.0,29.78,SW,236,27.0,31.0,67,0.00,,,0.00,Wunderground v.1.15,2013-01-19 21:04:00,
2013-01-19 15:09:00,50.5,40.3,29.78,WSW,248,27.0,31.0,68,0.00,,,0.00,Wunderground v.1.15,2013-01-19 21:09:00,
2013-01-19 15:15:00,50.5,39.9,29.78,WSW,239,25.0,28.0,67,0.00,,,0.00,Wunderground v.1.15,2013-01-19 21:15:00,
2013-01-19 15:20:00,50.4,40.6,29.78,WSW,247,25.0,25.0,69,0.00,,,0.00,Wunderground v.1.15,2013-01-19 21:20:00,
2013-01-19 15:25:00,50.4,40.2,29.78,WSW,242,25.0,27.0,68,0.00,,,0.00,Wunderground v.1.15,2013-01-19 21:25:00,
2013-01-19 15:31:00,50.3,40.5,29.77,WSW,244,23.0,24.0,69,0.00,,,0.00,Wunderground v.1.15,2013-01-19 21:31:00,
2013-01-19 15:36:00,50.2,40.4,29.77,SW,233,21.0,24.0,69,0.00,,,0.00,Wunderground v.1.15,2013-01-19 21:36:00,
2013-01-19 15:43:00,50.1,40.3,29.78,West,261,21.0,22.0,69,0.00,,,0.00,Wunderground v.1.15,2013-01-19 21:43:00,
2013-01-19 15:48:00,50.0,40.6,29.79,WSW,250,21.0,24.0,70,0.00,,,0.00,Wunderground v.1.15,2013-01-19 21:48:00,
2013-01-19 15:53:00,49.9,40.5,29.79,WSW,246,21.0,22.0,70,0.00,,,0.00,Wunderground v.1.15,2013-01-19 21:53:00,
2013-01-19 15:59:00,49.7,40.7,29.79,WSW,253,21.0,22.0,71,0.00,,,0.00,Wunderground v.1.15,2013-01-19 21:59:00,
2013-01-19 16:04:00,49.4,40.7,29.80,WSW,244,19.0,20.0,72,0.00,,,0.00,Wunderground v.1.15,2013-01-19 22:04:00,
2013-01-19 16:10:00,49.3,40.7,29.80,WSW,243,17.0,18.0,72,0.00,,,0.00,Wunderground v.1.15,2013-01-19 22:10:00,
2013-01-19 16:15:00,49.1,40.5,29.80,SW,236,16.0,18.0,72,0.00,,,0.00,Wunderground v.1.15,2013-01-19 22:15:00,
2013-01-19 16:23:00,48.5,40.2,29.80,WSW,242,14.0,15.0,73,0.00,,,0.00,Wunderground v.1.15,2013-01-19 22:23:00,
2013-01-19 16:29:00,48.1,40.2,29.81,SW,235,14.0,15.0,74,0.00,,,0.00,Wunderground v.1.15,2013-01-19 22:29:00,
2013-01-19 16:35:00,47.6,39.7,29.81,WSW,243,14.0,16.0,74,0.00,,,0.00,Wunderground v.1.15,2013-01-19 22:35:00,
2013-01-19 16:42:00,46.5,39.3,29.81,WSW,240,12.0,13.0,76,0.00,,,0.00,Wunderground v.1.15,2013-01-19 22:42:00,
2013-01-19 16:48:00,45.6,38.8,29.81,WSW,239,11.0,13.0,77,0.00,,,0.00,Wunderground v.1.15,2013-01-19 22:48:00,
2013-01-19 16:53:00,44.7,38.3,29.81,WSW,254,11.0,13.0,78,0.00,,,0.00,Wunderground v.1.15,2013-01-19 22:53:00,
2013-01-19 16:58:00,43.6,37.5,29.82,West,268,11.0,13.0,79,0.00,,,0.00,Wunderground v.1.15,2013-01-19 22:58:00,
2013-01-19 17:05:00,42.9,37.5,29.82,WSW,239,11.0,14.0,81,0.00,,,0.00,Wunderground v.1.15,2013-01-19 23:05:00,
2013-01-19 17:11:00,42.9,37.2,29.83,WSW,258,12.0,13.0,80,0.00,,,0.00,Wunderground v.1.15,2013-01-19 23:11:00,
2013-01-19 17:17:00,43.3,37.2,29.83,SW,232,12.0,13.0,79,0.00,,,0.00,Wunderground v.1.15,2013-01-19 23:17:00,
2013-01-19 17:23:00,43.4,37.0,29.83,WSW,247,13.0,14.0,78,0.00,,,0.00,Wunderground v.1.15,2013-01-19 23:23:00,
2013-01-19 17:29:00,43.0,36.9,29.83,WSW,240,13.0,14.0,79,0.00,,,0.00,Wunderground v.1.15,2013-01-19 23:29:00,
2013-01-19 17:34:00,42.5,36.4,29.83,WSW,246,13.0,14.0,79,0.00,,,0.00,Wunderground v.1.15,2013-01-19 23:34:00,
2013-01-19 17:40:00,42.2,36.5,29.83,West,271,13.0,13.0,80,0.00,,,0.00,Wunderground v.1.15,2013-01-19 23:40:00,
2013-01-19 17:46:00,41.9,36.5,29.84,WSW,243,13.0,13.0,81,0.00,,,0.00,Wunderground v.1.15,2013-01-19 23:46:00,
2013-01-19 17:51:00,41.6,36.2,29.84,WSW,243,12.0,12.0,81,0.00,,,0.00,Wunderground v.1.15,2013-01-19 23:51:00,
2013-01-19 17:56:00,41.6,36.5,29.84,WSW,250,11.0,15.0,82,0.00,,,0.00,Wunderground v.1.15,2013-01-19 23:56:00,
2013-01-19 18:01:00,41.9,36.5,29.84,WSW,256,11.0,12.0,81,0.00,,,0.00,Wunderground v.1.15,2013-01-20 00:01:00,
2013-01-19 18:06:00,41.9,36.5,29.85,West,264,12.0,13.0,81,0.00,,,0.00,Wunderground v.1.15,2013-01-20 00:06:00,
2013-01-19 18:11:00,42.0,36.6,29.85,WSW,253,12.0,12.0,81,0.00,,,0.00,Wunderground v.1.15,2013-01-20 00:11:00,
2013-01-19 18:16:00,41.8,36.1,29.85,WSW,245,13.0,14.0,80,0.00,,,0.00,Wunderground v.1.15,2013-01-20 00:16:00,
2013-01-19 18:22:00,41.4,36.0,29.85,WSW,251,13.0,13.0,81,0.00,,,0.00,Wunderground v.1.15,2013-01-20 00:22:00,
2013-01-19 18:27:00,41.1,36.0,29.85,WSW,251,12.0,13.0,82,0.00,,,0.00,Wunderground v.1.15,2013-01-20 00:27:00,
2013-01-19 18:32:00,40.9,35.5,29.85,WSW,252,12.0,12.0,81,0.00,,,0.00,Wunderground v.1.15,2013-01-20 00:32:00,
2013-01-19 18:38:00,40.3,35.2,29.85,WSW,239,11.0,12.0,82,0.00,,,0.00,Wunderground v.1.15,2013-01-20 00:38:00,
2013-01-19 18:44:00,39.7,35.0,29.85,WSW,251,11.0,12.0,83,0.00,,,0.00,Wunderground v.1.15,2013-01-20 00:44:00,
2013-01-19 18:49:00,39.2,34.8,29.86,WSW,252,10.0,12.0,84,0.00,,,0.00,Wunderground v.1.15,2013-01-20 00:49:00,
2013-01-19 18:55:00,39.3,35.2,29.86,WSW,254,10.0,12.0,85,0.00,,,0.00,Wunderground v.1.15,2013-01-20 00:55:00,
2013-01-19 19:00:00,39.5,35.1,29.86,WSW,251,11.0,11.0,84,0.00,,,0.00,Wunderground v.1.15,2013-01-20 01:00:00,
2013-01-19 19:07:00,39.4,35.0,29.86,WSW,256,12.0,14.0,84,0.00,,,0.00,Wunderground v.1.15,2013-01-20 01:07:00,
2013-01-19 19:12:00,39.3,34.9,29.86,WSW,237,12.0,13.0,84,0.00,,,0.00,Wunderground v.1.15,2013-01-20 01:12:00,
2013-01-19 19:17:00,39.4,35.0,29.87,WSW,247,12.0,13.0,84,0.00,,,0.00,Wunderground v.1.15,2013-01-20 01:17:00,
2013-01-19 19:22:00,39.6,35.2,29.87,WSW,239,12.0,13.0,84,0.00,,,0.00,Wunderground v.1.15,2013-01-20 01:22:00,
2013-01-19 19:28:00,40.6,35.8,29.87,WSW,247,12.0,18.0,83,0.00,,,0.00,Wunderground v.1.15,2013-01-20 01:28:00,
2013-01-19 19:33:00,41.3,35.9,29.88,WSW,256,13.0,18.0,81,0.00,,,0.00,Wunderground v.1.15,2013-01-20 01:33:00,
2013-01-19 19:39:00,41.3,35.9,29.88,SW,232,13.0,18.0,81,0.00,,,0.00,Wunderground v.1.15,2013-01-20 01:39:00,
2013-01-19 19:44:00,41.0,35.6,29.88,West,260,13.0,14.0,81,0.00,,,0.00,Wunderground v.1.15,2013-01-20 01:44:00,
2013-01-19 19:49:00,41.0,35.3,29.88,SW,223,13.0,14.0,80,0.00,,,0.00,Wunderground v.1.15,2013-01-20 01:49:00,
2013-01-19 19:55:00,41.0,35.3,29.89,WSW,256,13.0,14.0,80,0.00,,,0.00,Wunderground v.1.15,2013-01-20 01:55:00,
2013-01-19 20:00:00,40.7,35.0,29.88,WSW,241,13.0,13.0,80,0.00,,,0.00,Wunderground v.1.15,2013-01-20 02:00:00,
2013-01-19 20:06:00,40.3,34.6,29.89,SW,235,12.0,13.0,80,0.00,,,0.00,Wunderground v.1.15,2013-01-20 02:06:00,
2013-01-19 20:11:00,39.5,34.2,29.89,WSW,243,11.0,11.0,81,0.00,,,0.00,Wunderground v.1.15,2013-01-20 02:11:00,
2013-01-19 20:16:00,39.6,34.2,29.89,West,260,10.0,11.0,81,0.00,,,0.00,Wunderground v.1.15,2013-01-20 02:16:00,
2013-01-19 20:21:00,39.5,34.2,29.89,West,268,11.0,11.0,81,0.00,,,0.00,Wunderground v.1.15,2013-01-20 02:21:00,
2013-01-19 20:26:00,38.9,33.9,29.89,WSW,258,10.0,11.0,82,0.00,,,0.00,Wunderground v.1.15,2013-01-20 02:26:00,
2013-01-19 20:32:00,38.6,33.6,29.89,WSW,248,9.0,10.0,82,0.00,,,0.00,Wunderground v.1.15,2013-01-20 02:32:00,
2013-01-19 20:38:00,38.8,33.8,29.89,WSW,252,10.0,11.0,82,0.00,,,0.00,Wunderground v.1.15,2013-01-20 02:38:00,
2013-01-19 20:44:00,38.9,33.6,29.89,WSW,250,10.0,14.0,81,0.00,,,0.00,Wunderground v.1.15,2013-01-20 02:44:00,
2013-01-19 20:49:00,38.8,33.5,29.89,WSW,258,10.0,14.0,81,0.00,,,0.00,Wunderground v.1.15,2013-01-20 02:49:00,
2013-01-19 20:54:00,39.0,33.7,29.90,SW,229,10.0,11.0,81,0.00,,,0.00,Wunderground v.1.15,2013-01-20 02:54:00,
2013-01-19 20:59:00,38.8,33.5,29.90,West,279,9.0,13.0,81,0.00,,,0.00,Wunderground v.1.15,2013-01-20 02:59:00,
2013-01-19 21:05:00,38.9,33.6,29.90,West,265,10.0,15.0,81,0.00,,,0.00,Wunderground v.1.15,2013-01-20 03:05:00,
2013-01-19 21:10:00,38.9,33.6,29.90,West,272,11.0,13.0,81,0.00,,,0.00,Wunderground v.1.15,2013-01-20 03:10:00,
2013-01-19 21:15:00,38.4,33.4,29.90,WNW,298,10.0,13.0,82,0.00,,,0.00,Wunderground v.1.15,2013-01-20 03:15:00,
2013-01-19 21:21:00,38.3,33.3,29.91,WSW,258,9.0,11.0,82,0.00,,,0.00,Wunderground v.1.15,2013-01-20 03:21:00,
2013-01-19 21:26:00,38.5,33.8,29.91,West,280,11.0,16.0,83,0.00,,,0.00,Wunderground v.1.15,2013-01-20 03:26:00,
2013-01-19 21:32:00,39.5,34.2,29.91,WNW,291,13.0,15.0,81,0.00,,,0.00,Wunderground v.1.15,2013-01-20 03:32:00,
2013-01-19 21:37:00,40.1,34.1,29.91,West,261,16.0,24.0,79,0.00,,,0.00,Wunderground v.1.15,2013-01-20 03:37:00,
2013-01-19 21:43:00,40.7,34.0,29.92,WNW,290,23.0,30.0,77,0.00,,,0.00,Wunderground v.1.15,2013-01-20 03:43:00,
2013-01-19 21:48:00,40.6,34.0,29.92,WNW,294,26.0,30.0,77,0.00,,,0.00,Wunderground v.1.15,2013-01-20 03:48:00,
2013-01-19 21:53:00,40.1,33.8,29.92,WNW,299,24.0,26.0,78,0.00,,,0.00,Wunderground v.1.15,2013-01-20 03:53:00,
2013-01-19 21:59:00,40.2,33.9,29.92,WNW,291,23.0,30.0,78,0.00,,,0.00,Wunderground v.1.15,2013-01-20 03:59:00,
2013-01-19 22:05:00,40.0,33.7,29.93,WNW,289,25.0,25.0,78,0.00,,,0.00,Wunderground v.1.15,2013-01-20 04:05:00,
2013-01-19 22:12:00,39.8,33.2,29.93,WNW,287,24.0,28.0,77,0.00,,,0.00,Wunderground v.1.15,2013-01-20 04:12:00,
2013-01-19 22:18:00,39.5,32.9,29.93,WNW,289,25.0,28.0,77,0.00,,,0.00,Wunderground v.1.15,2013-01-20 04:18:00,
2013-01-19 22:23:00,39.2,32.3,29.94,WNW,294,26.0,30.0,76,0.00,,,0.00,Wunderground v.1.15,2013-01-20 04:23:00,
2013-01-19 22:28:00,38.9,32.0,29.94,WNW,292,27.0,30.0,76,0.00,,,0.00,Wunderground v.1.15,2013-01-20 04:28:00,
2013-01-19 22:34:00,38.6,31.0,29.94,WNW,294,28.0,34.0,74,0.00,,,0.00,Wunderground v.1.15,2013-01-20 04:34:00,
2013-01-19 22:39:00,38.1,30.9,29.94,WNW,294,28.0,34.0,75,0.00,,,0.00,Wunderground v.1.15,2013-01-20 04:39:00,
2013-01-19 22:45:00,37.7,30.8,29.95,WNW,284,26.0,30.0,76,0.00,,,0.00,Wunderground v.1.15,2013-01-20 04:45:00,
2013-01-19 22:51:00,37.4,30.5,29.95,WNW,296,26.0,28.0,76,0.00,,,0.00,Wunderground v.1.15,2013-01-20 04:51:00,
2013-01-19 22:57:00,37.1,29.6,29.96,NW,307,26.0,28.0,74,0.00,,,0.00,Wunderground v.1.15,2013-01-20 04:57:00,
2013-01-19 23:00:00,36.9,28.7,29.96,West,272,28.0,30.0,72,0.00,,,0.00,Wunderground v.1.15,2013-01-20 05:00:00,
2013-01-19 23:04:00,36.5,27.3,29.96,WNW,290,30.0,37.0,69,0.00,,,0.00,Wunderground v.1.15,2013-01-20 05:04:00,
2013-01-19 23:05:00,36.4,26.8,29.96,WNW,294,31.0,37.0,68,0.00,,,0.00,Wunderground v.1.15,2013-01-20 05:05:00,
2013-01-19 23:07:00,36.2,26.6,29.97,WNW,286,32.0,37.0,68,0.00,,,0.00,Wunderground v.1.15,2013-01-20 05:07:00,
2013-01-19 23:12:00,35.8,26.6,29.97,WNW,296,31.0,32.0,69,0.00,,,0.00,Wunderground v.1.15,2013-01-20 05:12:00,
2013-01-19 23:17:00,35.5,27.4,29.98,WNW,291,30.0,37.0,72,0.00,,,0.00,Wunderground v.1.15,2013-01-20 05:17:00,
2013-01-19 23:22:00,34.9,26.4,29.99,WNW,291,33.0,43.0,71,0.00,,,0.00,Wunderground v.1.15,2013-01-20 05:22:00,
2013-01-19 23:28:00,34.3,26.5,30.00,NW,306,34.0,43.0,73,0.00,,,0.00,Wunderground v.1.15,2013-01-20 05:28:00,
2013-01-19 23:33:00,33.9,26.5,30.00,WNW,302,32.0,41.0,74,0.00,,,0.00,Wunderground v.1.15,2013-01-20 05:33:00,
2013-01-19 23:38:00,32.6,22.8,30.01,WNW,290,35.0,41.0,67,0.00,,,0.00,Wunderground v.1.15,2013-01-20 05:38:00,
2013-01-19 23:43:00,31.7,23.0,30.02,WNW,294,35.0,40.0,70,0.00,,,0.00,Wunderground v.1.15,2013-01-20 05:43:00,
2013-01-19 23:48:00,31.2,21.9,30.02,WNW,296,33.0,40.0,68,0.00,,,0.00,Wunderground v.1.15,2013-01-20 05:48:00,
2013-01-19 23:53:00,30.6,20.9,30.03,WNW,294,32.0,45.0,67,0.00,,,0.00,Wunderground v.1.15,2013-01-20 05:53:00,
2013-01-19 23:58:00,30.4,21.4,30.02,WNW,287,34.0,45.0,69,0.00,,,0.00,Wunderground v.1.15,2013-01-20 05:58:00,